Location: Geroldsau
(48.7259°N, 8.2466°E)
Time: 13:34:48
(UTC+00:00)

USA 215 - Pass Details

Date: 20 June 2021
Orbit: 1100 x 1107 km, 123.0° (Epoch: 22 June)

Event Time Altitude Azimuth Distance (km) Brightness Sun altitude
Rises 02:18:48 0° 79° (ENE) 3,920 7.0 -8.5°
Reaches altitude 10° 02:21:23 10° 73° (ENE) 2,962 6.5 -8.2°
Maximum altitude 02:27:29 44° 4° (N) 1,491 4.5 -7.5°
Drops below altitude 10° 02:33:35 10° 296° (WNW) 2,962 5.4 -6.9°
Sets 02:36:10 0° 290° (WNW) 3,921 5.9 -6.6°
